Time,TemperatureF,DewpointF,PressureIn,WindDirection,WindDirectionDegrees,WindSpeedMPH,WindSpeedGustMPH,Humidity,HourlyPrecipIn,Conditions,Clouds,dailyrainin,SolarRadiationWatts/m^2,SoftwareType,DateUTC
2013-06-27 00:07:00,75.2,71.0,29.82,NW,321,0.0,1.0,87,0.00,,,0.00,0,weatherlink.com 1.10,2013-06-27 05:07:00,
2013-06-27 00:22:00,75.3,69.0,29.82,NW,321,0.0,2.0,81,0.00,,,0.00,0,weatherlink.com 1.10,2013-06-27 05:22:00,
2013-06-27 00:37:00,74.8,69.0,29.82,NW,321,0.0,0.0,83,0.00,,,0.00,0,weatherlink.com 1.10,2013-06-27 05:37:00,
2013-06-27 00:52:00,74.0,69.0,29.82,NW,321,0.0,0.0,85,0.00,,,0.00,0,weatherlink.com 1.10,2013-06-27 05:52:00,
2013-06-27 01:07:00,73.2,70.0,29.82,NW,321,0.0,0.0,88,0.00,,,0.00,0,weatherlink.com 1.10,2013-06-27 06:07:00,
2013-06-27 01:22:00,72.8,70.0,29.82,NW,321,0.0,0.0,90,0.00,,,0.00,0,weatherlink.com 1.10,2013-06-27 06:22:00,
2013-06-27 01:37:00,72.8,69.0,29.83,NW,321,0.0,0.0,88,0.00,,,0.00,0,weatherlink.com 1.10,2013-06-27 06:37:00,
2013-06-27 01:52:00,72.9,69.0,29.83,NW,321,0.0,1.0,86,0.00,,,0.00,0,weatherlink.com 1.10,2013-06-27 06:52:00,
2013-06-27 02:07:00,72.8,68.0,29.82,NW,321,0.0,0.0,85,0.00,,,0.00,0,weatherlink.com 1.10,2013-06-27 07:07:00,
2013-06-27 02:22:00,72.4,68.0,29.83,NW,321,0.0,0.0,86,0.00,,,0.00,0,weatherlink.com 1.10,2013-06-27 07:22:00,
2013-06-27 02:37:00,71.9,67.0,29.83,NW,321,0.0,0.0,85,0.00,,,0.00,0,weatherlink.com 1.10,2013-06-27 07:37:00,
2013-06-27 02:52:00,71.5,67.0,29.83,NW,321,0.0,0.0,86,0.00,,,0.00,0,weatherlink.com 1.10,2013-06-27 07:52:00,
2013-06-27 03:07:00,71.6,67.0,29.83,NW,321,0.0,0.0,85,0.00,,,0.00,0,weatherlink.com 1.10,2013-06-27 08:07:00,
2013-06-27 03:22:00,71.1,67.0,29.84,NW,321,0.0,0.0,87,0.00,,,0.00,0,weatherlink.com 1.10,2013-06-27 08:22:00,
2013-06-27 03:37:00,70.8,68.0,29.84,NW,321,0.0,0.0,89,0.00,,,0.00,0,weatherlink.com 1.10,2013-06-27 08:37:00,
2013-06-27 03:52:00,70.7,68.0,29.84,NW,321,0.0,0.0,91,0.00,,,0.00,0,weatherlink.com 1.10,2013-06-27 08:52:00,
2013-06-27 04:07:00,70.7,68.0,29.84,NW,321,0.0,0.0,90,0.00,,,0.00,0,weatherlink.com 1.10,2013-06-27 09:07:00,
2013-06-27 04:22:00,70.8,68.0,29.84,NW,321,0.0,0.0,91,0.00,,,0.00,0,weatherlink.com 1.10,2013-06-27 09:22:00,
2013-06-27 04:37:00,70.6,68.0,29.85,NW,321,0.0,0.0,91,0.00,,,0.00,0,weatherlink.com 1.10,2013-06-27 09:37:00,
2013-06-27 04:52:00,70.3,68.0,29.85,NW,321,0.0,0.0,91,0.00,,,0.00,0,weatherlink.com 1.10,2013-06-27 09:52:00,
2013-06-27 05:07:00,70.5,68.0,29.85,NW,321,0.0,0.0,92,0.00,,,0.00,0,weatherlink.com 1.10,2013-06-27 10:07:00,
2013-06-27 05:22:00,70.6,69.0,29.85,NW,321,0.0,0.0,93,0.00,,,0.00,0,weatherlink.com 1.10,2013-06-27 10:22:00,
2013-06-27 05:37:00,70.5,68.0,29.86,NW,321,0.0,0.0,93,0.00,,,0.00,0,weatherlink.com 1.10,2013-06-27 10:37:00,
2013-06-27 05:52:00,70.5,68.0,29.86,NW,321,0.0,0.0,93,0.00,,,0.00,0,weatherlink.com 1.10,2013-06-27 10:52:00,
2013-06-27 06:07:00,70.7,69.0,29.86,NW,321,0.0,0.0,93,0.00,,,0.00,9,weatherlink.com 1.10,2013-06-27 11:07:00,
2013-06-27 06:22:00,71.0,69.0,29.86,NW,321,0.0,0.0,92,0.00,,,0.00,19,weatherlink.com 1.10,2013-06-27 11:22:00,
2013-06-27 06:37:00,71.3,69.0,29.86,NW,321,0.0,0.0,92,0.00,,,0.00,33,weatherlink.com 1.10,2013-06-27 11:37:00,
2013-06-27 06:52:00,72.6,70.0,29.86,NW,321,0.0,0.0,91,0.00,,,0.00,58,weatherlink.com 1.10,2013-06-27 11:52:00,
2013-06-27 07:07:00,74.3,71.0,29.86,NW,321,0.0,0.0,89,0.00,,,0.00,93,weatherlink.com 1.10,2013-06-27 12:07:00,
2013-06-27 07:22:00,75.7,70.0,29.86,NW,321,0.0,1.0,82,0.00,,,0.00,135,weatherlink.com 1.10,2013-06-27 12:22:00,
2013-06-27 07:38:00,77.2,71.0,29.86,NW,321,0.0,0.0,80,0.00,,,0.00,179,weatherlink.com 1.10,2013-06-27 12:38:00,
2013-06-27 07:53:00,78.8,71.0,29.86,NW,321,0.0,1.0,76,0.00,,,0.00,220,weatherlink.com 1.10,2013-06-27 12:53:00,
2013-06-27 08:08:00,81.1,72.0,29.87,NW,321,0.0,1.0,73,0.00,,,0.00,258,weatherlink.com 1.10,2013-06-27 13:08:00,
2013-06-27 08:23:00,82.1,72.0,29.86,NW,321,0.0,2.0,71,0.00,,,0.00,304,weatherlink.com 1.10,2013-06-27 13:23:00,
2013-06-27 08:38:00,84.0,73.0,29.86,NW,321,0.0,5.0,69,0.00,,,0.00,346,weatherlink.com 1.10,2013-06-27 13:38:00,
2013-06-27 08:53:00,85.4,73.0,29.87,NW,321,1.0,3.0,67,0.00,,,0.00,403,weatherlink.com 1.10,2013-06-27 13:53:00,
2013-06-27 09:08:00,85.6,75.0,29.88,NW,321,0.0,6.0,70,0.00,,,0.00,473,weatherlink.com 1.10,2013-06-27 14:08:00,
2013-06-27 09:23:00,88.1,76.0,29.87,NW,321,3.0,3.0,68,0.00,,,0.00,487,weatherlink.com 1.10,2013-06-27 14:23:00,
2013-06-27 09:38:00,88.2,77.0,29.87,NW,321,0.0,3.0,70,0.00,,,0.00,359,weatherlink.com 1.10,2013-06-27 14:38:00,
2013-06-27 09:53:00,87.7,77.0,29.88,NW,321,1.0,3.0,71,0.00,,,0.00,338,weatherlink.com 1.10,2013-06-27 14:53:00,
2013-06-27 10:08:00,87.4,78.0,29.88,NW,321,0.0,3.0,74,0.00,,,0.00,269,weatherlink.com 1.10,2013-06-27 15:08:00,
2013-06-27 10:23:00,86.6,77.0,29.87,NW,321,0.0,3.0,74,0.00,,,0.00,153,weatherlink.com 1.10,2013-06-27 15:23:00,
2013-06-27 10:38:00,84.9,77.0,29.88,NW,321,0.0,2.0,76,0.00,,,0.00,83,weatherlink.com 1.10,2013-06-27 15:38:00,
2013-06-27 10:53:00,84.1,77.0,29.90,NW,321,0.0,1.0,79,0.00,,,0.00,35,weatherlink.com 1.10,2013-06-27 15:53:00,
2013-06-27 11:08:00,82.7,76.0,29.93,NNW,343,5.0,13.0,80,0.00,,,0.00,23,weatherlink.com 1.10,2013-06-27 16:08:00,
2013-06-27 11:23:00,81.0,71.0,29.93,NNE,31,3.0,9.0,71,0.00,,,0.00,77,weatherlink.com 1.10,2013-06-27 16:23:00,
2013-06-27 11:38:00,78.8,69.0,29.94,NE,40,7.0,10.0,72,0.00,,,0.00,58,weatherlink.com 1.10,2013-06-27 16:38:00,
2013-06-27 11:53:00,77.5,68.0,29.94,NNW,348,2.0,8.0,73,0.00,,,0.00,49,weatherlink.com 1.10,2013-06-27 16:53:00,
2013-06-27 12:08:00,76.9,68.0,29.95,ENE,67,1.0,7.0,74,0.00,,,0.00,42,weatherlink.com 1.10,2013-06-27 17:08:00,
2013-06-27 12:23:00,76.3,68.0,29.93,ENE,65,1.0,7.0,76,0.00,,,0.00,42,weatherlink.com 1.10,2013-06-27 17:23:00,
2013-06-27 12:38:00,75.4,69.0,29.91,ENE,61,2.0,7.0,79,0.00,,,0.00,51,weatherlink.com 1.10,2013-06-27 17:38:00,
2013-06-27 12:53:00,75.2,69.0,29.92,NE,46,2.0,9.0,80,0.00,,,0.00,91,weatherlink.com 1.10,2013-06-27 17:53:00,
2013-06-27 13:08:00,75.8,69.0,29.91,NE,46,1.0,4.0,80,0.00,,,0.00,163,weatherlink.com 1.10,2013-06-27 18:08:00,
2013-06-27 13:23:00,76.5,70.0,29.92,NE,46,0.0,4.0,79,0.00,,,0.00,160,weatherlink.com 1.10,2013-06-27 18:23:00,
2013-06-27 13:38:00,77.5,70.0,29.91,ENE,75,3.0,7.0,77,0.00,,,0.00,225,weatherlink.com 1.10,2013-06-27 18:38:00,
2013-06-27 13:53:00,78.6,70.0,29.89,East,85,0.0,7.0,76,0.00,,,0.00,519,weatherlink.com 1.10,2013-06-27 18:53:00,
2013-06-27 14:08:00,80.8,71.0,29.87,East,98,2.0,6.0,73,0.00,,,0.00,652,weatherlink.com 1.10,2013-06-27 19:08:00,
2013-06-27 14:23:00,82.2,72.0,29.87,East,101,2.0,8.0,70,0.00,,,0.00,366,weatherlink.com 1.10,2013-06-27 19:23:00,
2013-06-27 14:38:00,82.8,72.0,29.87,East,101,3.0,6.0,69,0.00,,,0.00,359,weatherlink.com 1.10,2013-06-27 19:38:00,
2013-06-27 14:53:00,82.7,71.0,29.87,East,101,0.0,5.0,67,0.00,,,0.00,318,weatherlink.com 1.10,2013-06-27 19:53:00,
2013-06-27 15:08:00,83.4,73.0,29.87,East,101,0.0,1.0,70,0.00,,,0.00,367,weatherlink.com 1.10,2013-06-27 20:08:00,
2013-06-27 15:23:00,84.2,72.0,29.87,East,100,1.0,5.0,66,0.00,,,0.00,427,weatherlink.com 1.10,2013-06-27 20:23:00,
2013-06-27 15:39:00,84.8,72.0,29.87,East,100,0.0,2.0,65,0.00,,,0.00,396,weatherlink.com 1.10,2013-06-27 20:39:00,
2013-06-27 15:54:00,84.1,72.0,29.87,East,100,0.0,2.0,67,0.00,,,0.00,206,weatherlink.com 1.10,2013-06-27 20:54:00,
2013-06-27 16:24:00,83.7,72.0,29.85,East,100,0.0,1.0,67,0.00,,,0.00,178,weatherlink.com 1.10,2013-06-27 21:24:00,
2013-06-27 16:54:00,82.4,72.0,29.81,ESE,103,5.0,7.0,71,0.00,,,0.00,109,weatherlink.com 1.10,2013-06-27 21:54:00,
2013-06-27 17:09:00,82.4,72.0,29.79,ESE,104,2.0,6.0,71,0.00,,,0.00,174,weatherlink.com 1.10,2013-06-27 22:09:00,
2013-06-27 17:24:00,83.1,71.0,29.80,ESE,104,0.0,3.0,68,0.00,,,0.00,153,weatherlink.com 1.10,2013-06-27 22:24:00,
2013-06-27 17:39:00,82.6,72.0,29.81,ESE,103,0.0,6.0,71,0.00,,,0.00,114,weatherlink.com 1.10,2013-06-27 22:39:00,
2013-06-27 17:54:00,82.5,72.0,29.82,ESE,103,0.0,2.0,70,0.00,,,0.00,125,weatherlink.com 1.10,2013-06-27 22:54:00,
2013-06-27 18:09:00,81.9,72.0,29.81,ESE,103,2.0,5.0,73,0.00,,,0.00,132,weatherlink.com 1.10,2013-06-27 23:09:00,
2013-06-27 18:24:00,81.4,73.0,29.80,ESE,103,0.0,6.0,76,0.00,,,0.00,193,weatherlink.com 1.10,2013-06-27 23:24:00,
2013-06-27 18:39:00,81.8,72.0,29.78,ESE,103,0.0,5.0,73,0.00,,,0.00,197,weatherlink.com 1.10,2013-06-27 23:39:00,
2013-06-27 18:54:00,82.3,73.0,29.78,ESE,103,0.0,2.0,73,0.00,,,0.00,153,weatherlink.com 1.10,2013-06-27 23:54:00,
2013-06-27 19:24:00,81.9,73.0,29.79,ESE,103,0.0,1.0,74,0.00,,,0.00,49,weatherlink.com 1.10,2013-06-28 00:24:00,
2013-06-27 19:39:00,80.9,73.0,29.80,ESE,103,1.0,5.0,77,0.00,,,0.00,33,weatherlink.com 1.10,2013-06-28 00:39:00,
2013-06-27 19:54:00,80.4,72.0,29.83,East,82,1.0,7.0,75,0.00,,,0.00,9,weatherlink.com 1.10,2013-06-28 00:54:00,
2013-06-27 20:09:00,79.8,72.0,29.82,NE,42,1.0,8.0,78,0.00,,,0.00,0,weatherlink.com 1.10,2013-06-28 01:09:00,
2013-06-27 20:24:00,78.3,71.0,29.83,NNE,28,2.0,6.0,78,0.00,,,0.00,0,weatherlink.com 1.10,2013-06-28 01:24:00,
2013-06-27 20:39:00,77.6,70.0,29.84,NNE,28,0.0,7.0,78,0.00,,,0.00,0,weatherlink.com 1.10,2013-06-28 01:39:00,
2013-06-27 21:09:00,76.4,69.0,29.84,NNE,28,3.0,6.0,78,0.00,,,0.00,0,weatherlink.com 1.10,2013-06-28 02:09:00,
2013-06-27 21:24:00,75.7,69.0,29.83,NNE,28,4.0,7.0,80,0.00,,,0.00,0,weatherlink.com 1.10,2013-06-28 02:24:00,
2013-06-27 21:54:00,74.9,69.0,29.86,NNE,27,0.0,3.0,81,0.00,,,0.00,0,weatherlink.com 1.10,2013-06-28 02:54:00,
2013-06-27 22:09:00,74.6,68.0,29.89,North,355,3.0,8.0,81,0.00,,,0.00,0,weatherlink.com 1.10,2013-06-28 03:09:00,
2013-06-27 22:24:00,74.7,69.0,29.85,NW,315,3.0,7.0,81,0.10,,,0.10,0,weatherlink.com 1.10,2013-06-28 03:24:00,
2013-06-27 22:40:00,72.6,68.0,29.87,NW,315,1.0,5.0,85,0.13,,,0.13,0,weatherlink.com 1.10,2013-06-28 03:40:00,
2013-06-27 22:54:00,71.6,68.0,29.90,NW,315,1.0,3.0,89,0.13,,,0.13,0,weatherlink.com 1.10,2013-06-28 03:54:00,
2013-06-27 23:09:00,71.7,69.0,29.91,NW,315,0.0,2.0,90,0.13,,,0.13,0,weatherlink.com 1.10,2013-06-28 04:09:00,
2013-06-27 23:24:00,72.1,68.0,29.91,NW,315,1.0,3.0,88,0.02,,,0.13,0,weatherlink.com 1.10,2013-06-28 04:24:00,
2013-06-27 23:39:00,71.7,69.0,29.90,NW,315,0.0,3.0,90,0.02,,,0.15,0,weatherlink.com 1.10,2013-06-28 04:39:00,
2013-06-27 23:54:00,71.6,69.0,29.89,NW,315,0.0,5.0,91,0.04,,,0.17,0,weatherlink.com 1.10,2013-06-28 04:54:00,